FW6530 Weather Reports


Display with metric or nautical units.
time (UTC)temp
F
wind
direction
speed
MPH
gust
MPH
rain 1hr
in
rain 24hr
in
rain mn
in
humidity
%
barometer
mb
20260506232024 55 150 9.0 18.0 0.00 0.05 0.01 42 1017.5
20260506231542 55 138 10.0 19.0 0.00 0.05 0.01 41 1017.6
20260506231028 55 157 9.0 19.0 0.00 0.05 0.01 41 1017.6
20260506230523 55 162 9.0 15.0 0.00 0.05 0.01 40 1017.5
20260506230037 55 223 4.0 14.0 0.00 0.05 0.01 41 1017.5
20260506225525 55 246 4.0 18.0 0.00 0.05 0.01 43 1017.5
20260506225021 55 188 9.0 19.0 0.00 0.05 0.01 43 1017.5
20260506224537 54 215 7.0 19.0 0.00 0.05 0.01 47 1017.5
20260506224025 54 186 8.0 21.0 0.00 0.05 0.01 45 1017.5
20260506223524 54 182 7.0 27.0 0.00 0.05 0.01 46 1017.4
20260506223037 54 157 13.0 27.0 0.00 0.05 0.01 47 1017.4
20260506222524 55 196 12.0 27.0 0.00 0.05 0.01 47 1017.3
20260506222023 57 188 12.0 27.0 0.00 0.05 0.01 44 1017.2
20260506221539 58 249 13.0 27.0 0.00 0.05 0.01 37 1016.8
20260506221022 59 125 12.0 28.0 0.00 0.05 0.01 34 1016.4
20260506220524 59 105 11.0 28.0 0.00 0.05 0.01 35 1016.4
20260506220043 59 135 11.0 20.0 0.00 0.05 0.01 35 1016.4
20260506215521 59 184 9.0 20.0 0.00 0.05 0.01 36 1016.3
20260506215021 59 136 11.0 19.0 0.00 0.05 0.01 36 1016.2
20260506214540 59 119 8.0 16.0 0.00 0.05 0.01 36 1016.4
20260506214021 59 153 8.0 19.0 0.00 0.05 0.01 37 1016.5
20260506213523 60 156 9.0 19.0 0.00 0.05 0.01 37 1016.5
20260506213036 59 188 7.0 17.0 0.00 0.05 0.01 38 1016.5
20260506212524 58 183 6.0 24.0 0.00 0.05 0.01 42 1016.5
20260506212023 56 167 10.0 26.0 0.00 0.05 0.01 42 1016.6
20260506211536 56 173 10.0 26.0 0.00 0.05 0.01 41 1016.6
20260506211026 57 147 10.0 20.0 0.00 0.05 0.01 39 1016.5
20260506210529 58 136 8.0 22.0 0.00 0.05 0.01 37 1016.4
20260506210044 58 127 10.0 22.0 0.00 0.05 0.01 37 1016.4
20260506205521 59 105 8.0 17.0 0.00 0.05 0.01 38 1016.2
20260506205021 59 113 6.0 20.0 0.00 0.05 0.01 39 1016.3
20260506204538 60 116 6.0 20.0 0.00 0.05 0.01 36 1016.3
20260506204024 59 179 6.0 16.0 0.00 0.05 0.01 41 1016.4
20260506203524 58 197 6.0 17.0 0.00 0.05 0.01 39 1016.6
20260506203042 59 136 9.0 19.0 0.00 0.05 0.01 38 1016.6
20260506202527 58 102 11.0 24.0 0.00 0.05 0.01 39 1016.5
20260506202024 58 171 12.0 24.0 0.00 0.05 0.01 40 1016.6
20260506201545 57 92 9.0 21.0 0.00 0.05 0.01 43 1016.5
20260506201023 57 128 12.0 21.0 0.00 0.05 0.01 42 1016.4
20260506200523 56 188 7.0 21.0 0.00 0.05 0.01 42 1016.6
20260506200035 56 131 10.0 21.0 0.00 0.05 0.01 42 1016.5
20260506195524 57 187 5.0 18.0 0.00 0.05 0.01 43 1016.5
20260506195024 57 198 7.0 22.0 0.00 0.05 0.01 43 1016.5
20260506194549 58 144 9.0 24.0 0.00 0.05 0.01 41 1016.6
20260506194023 58 169 10.0 24.0 0.00 0.05 0.01 41 1016.6
20260506193524 57 142 8.0 23.0 0.00 0.05 0.01 42 1016.6
20260506193044 57 158 9.0 23.0 0.00 0.05 0.01 43 1016.7
20260506192548 58 140 11.0 23.0 0.00 0.05 0.01 43 1016.8
20260506192024 58 118 10.0 20.0 0.00 0.05 0.01 44 1016.8
20260506191542 59 186 8.0 20.0 0.00 0.05 0.01 43 1016.8
20260506191024 58 117 11.0 20.0 0.00 0.05 0.01 44 1016.7
20260506190523 58 100 9.0 16.0 0.00 0.05 0.01 45 1016.8
20260506190038 57 132 9.0 25.0 0.00 0.05 0.01 45 1016.8
20260506185524 56 123 12.0 25.0 0.00 0.05 0.01 46 1016.8
20260506185024 56 114 8.0 18.0 0.00 0.05 0.01 48 1016.9
20260506184546 56 123 10.0 18.0 0.00 0.05 0.01 46 1016.9
20260506184024 55 104 10.0 20.0 0.00 0.05 0.01 48 1017.0
20260506183524 55 163 10.0 20.0 0.00 0.05 0.01 48 1017.1
20260506183040 55 122 8.0 20.0 0.00 0.05 0.01 49 1017.2
20260506182523 55 144 10.0 20.0 0.00 0.05 0.01 51 1017.3
20260506182028 54 150 8.0 17.0 0.00 0.05 0.01 52 1017.3
20260506181542 54 128 7.0 17.0 0.00 0.05 0.01 52 1017.3
20260506181023 54 121 7.0 22.0 0.00 0.05 0.01 52 1017.4
20260506180525 53 146 7.0 22.0 0.00 0.05 0.01 54 1017.4
20260506180043 53 134 10.0 21.0 0.00 0.05 0.01 53 1017.3
20260506175528 53 146 8.0 18.0 0.00 0.05 0.01 54 1017.4
20260506175023 52 125 9.0 18.0 0.00 0.05 0.01 57 1017.4
20260506174537 52 198 6.0 17.0 0.00 0.05 0.01 53 1017.5
20260506174024 51 138 5.0 13.0 0.00 0.05 0.01 59 1017.4
20260506173525 51 98 6.0 11.0 0.00 0.05 0.01 59 1017.5
20260506173043 51 136 4.0 12.0 0.00 0.05 0.01 57 1017.6
20260506172524 51 155 4.0 12.0 0.00 0.05 0.01 57 1017.7
20260506172024 50 111 3.0 14.0 0.00 0.05 0.01 58 1017.7
20260506171549 50 167 8.0 16.0 0.00 0.05 0.01 57 1017.8
20260506171024 50 126 8.0 16.0 0.00 0.05 0.01 56 1017.8
20260506170522 50 148 7.0 16.0 0.00 0.05 0.01 58 1017.7
20260506170034 50 111 7.0 13.0 0.00 0.05 0.01 60 1017.6
20260506165526 50 61 3.0 13.0 0.00 0.05 0.01 65 1017.5
20260506165027 49 115 6.0 14.0 0.00 0.05 0.01 61 1017.4
20260506164539 49 107 6.0 14.0 0.00 0.05 0.01 62 1017.3
20260506164024 49 125 5.0 12.0 0.00 0.05 0.01 64 1017.4
20260506163525 48 157 5.0 12.0 0.00 0.05 0.01 66 1017.5
20260506163052 47 138 6.0 12.0 0.00 0.05 0.01 65 1017.5
20260506162524 47 98 5.0 11.0 0.00 0.05 0.01 69 1017.5
20260506162026 47 100 6.0 11.0 0.00 0.05 0.01 67 1017.5
20260506161542 47 146 3.0 9.0 0.00 0.05 0.01 69 1017.5
20260506161023 47 96 3.0 10.0 0.00 0.05 0.01 72 1017.5
20260506160527 46 185 2.0 10.0 0.00 0.05 0.01 74 1017.7
20260506160038 45 159 4.0 10.0 0.00 0.05 0.01 71 1017.7
20260506155524 45 171 4.0 11.0 0.00 0.05 0.01 73 1017.7
20260506155024 45 116 7.0 12.0 0.00 0.05 0.01 73 1017.8
20260506154540 44 159 5.0 14.0 0.00 0.05 0.01 75 1017.7
20260506154026 43 152 3.0 15.0 0.00 0.05 0.01 76 1017.8
20260506153523 44 104 6.0 15.0 0.00 0.05 0.01 74 1017.8
20260506153039 44 146 4.0 13.0 0.00 0.05 0.01 75 1017.8
20260506152528 43 105 6.0 11.0 0.00 0.05 0.01 76 1017.8
20260506152021 43 93 4.0 11.0 0.00 0.05 0.01 76 1017.8
20260506151535 43 158 6.0 11.0 0.00 0.05 0.01 76 1017.8
20260506151024 43 125 6.0 15.0 0.00 0.05 0.01 75 1017.7
20260506150521 43 72 6.0 15.0 0.00 0.05 0.01 77 1017.8
20260506150041 42 130 4.0 10.0 0.00 0.05 0.01 79 1017.9
20260506145523 42 149 6.0 12.0 0.00 0.05 0.01 79 1018.0
20260506145022 42 90 5.0 12.0 0.00 0.05 0.01 79 1017.9
20260506144540 42 110 5.0 12.0 0.00 0.05 0.01 82 1017.7
20260506144023 41 117 5.0 12.0 0.00 0.05 0.01 83 1017.7
20260506143524 40 138 3.0 8.0 0.00 0.05 0.01 83 1017.6
20260506143035 40 121 3.0 8.0 0.00 0.05 0.01 83 1017.7
20260506142521 39 134 2.0 7.0 0.00 0.05 0.01 84 1017.6
20260506142022 39 144 3.0 7.0 0.00 0.05 0.01 84 1017.7
20260506141535 39 130 2.0 10.0 0.00 0.05 0.01 85 1017.5
20260506141024 39 171 4.0 10.0 0.00 0.05 0.01 86 1017.8
20260506140526 38 113 3.0 10.0 0.00 0.05 0.01 86 1017.7
20260506140049 38 154 3.0 8.0 0.00 0.05 0.01 88 1017.6
20260506135523 38 112 2.0 6.0 0.00 0.05 0.01 88 1017.6
20260506135025 37 119 2.0 6.0 0.00 0.05 0.01 88 1017.6
20260506134539 37 154 0.0 4.0 0.00 0.05 0.01 88 1017.7
20260506134021 37 0 0.0 6.0 0.00 0.05 0.01 89 1017.5
20260506133525 37 166 2.0 7.0 0.00 0.05 0.01 88 1017.5
20260506133037 37 93 1.0 7.0 0.00 0.05 0.01 89 1017.3
20260506132521 37 93 2.0 7.0 0.00 0.05 0.01 89 1017.3
20260506132023 36 95 0.0 7.0 0.00 0.05 0.01 89 1017.3
20260506131536 36 96 2.0 7.0 0.00 0.05 0.01 90 1017.2
20260506131026 36 147 1.0 5.0 0.00 0.05 0.01 90 1017.1
20260506130527 36 163 1.0 4.0 0.00 0.05 0.01 89 1017.2
20260506130042 36 165 0.0 2.0 0.00 0.05 0.01 89 1017.2
20260506125523 36 0 0.0 2.0 0.00 0.05 0.01 87 1017.1
20260506125023 36 0 0.0 2.0 0.00 0.05 0.01 87 1017.1
20260506124535 36 162 0.0 5.0 0.00 0.05 0.01 86 1017.0
20260506124024 36 0 0.0 6.0 0.00 0.05 0.01 86 1016.8
20260506123524 36 162 1.0 6.0 0.00 0.05 0.01 86 1016.8
20260506123039 36 163 2.0 7.0 0.00 0.05 0.01 87 1016.7
20260506122524 36 182 3.0 7.0 0.00 0.05 0.01 87 1016.7
20260506122023 36 294 0.0 3.0 0.00 0.05 0.01 88 1016.6
20260506121538 36 294 1.0 8.0 0.00 0.05 0.01 88 1016.7
20260506121022 36 293 2.0 8.0 0.00 0.05 0.01 89 1016.7
20260506120523 35 311 4.0 8.0 0.00 0.05 0.01 90 1016.7
20260506120036 35 304 3.0 8.0 0.00 0.05 0.01 92 1016.6
20260506115524 34 294 3.0 8.0 0.00 0.05 0.01 93 1016.4
20260506115023 34 335 2.0 8.0 0.00 0.05 0.01 92 1016.4
20260506114549 34 360 1.0 4.0 0.00 0.05 0.01 92 1016.5
20260506114024 34 360 2.0 4.0 0.00 0.05 0.01 92 1016.4
20260506113524 34 19 1.0 3.0 0.00 0.05 0.01 92 1016.2
20260506113041 34 0 0.0 3.0 0.00 0.05 0.01 93 1016.0
20260506112522 33 0 0.0 3.0 0.00 0.05 0.01 93 1016.0
20260506112023 33 22 1.0 3.0 0.01 0.05 0.01 93 1016.0
20260506111542 33 0 0.0 3.0 0.01 0.05 0.01 93 1016.1
20260506111023 33 0 0.0 2.0 0.01 0.05 0.01 92 1016.2
20260506110523 33 0 0.0 2.0 0.01 0.05 0.01 92 1016.2
20260506110041 33 275 0.0 1.0 0.01 0.05 0.01 92 1016.2
20260506105522 33 0 0.0 1.0 0.01 0.05 0.01 92 1016.2
20260506105023 33 0 0.0 2.0 0.01 0.05 0.01 91 1016.2
20260506104543 33 0 0.0 2.0 0.01 0.05 0.01 91 1016.1
20260506104023 34 0 0.0 2.0 0.01 0.05 0.01 91 1016.2
20260506103523 34 0 0.0 2.0 0.01 0.05 0.01 91 1016.2
20260506103035 34 0 0.0 2.0 0.01 0.05 0.01 91 1016.1
20260506102527 34 0 0.0 2.0 0.01 0.05 0.01 91 1016.1
20260506102024 34 0 0.0 3.0 0.00 0.04 0.00 91 1016.1
20260506101537 35 0 0.0 3.0 0.00 0.04 0.00 91 1016.1
20260506101025 35 275 1.0 3.0 0.00 0.04 0.00 91 1016.1
20260506100527 35 275 1.0 3.0 0.00 0.04 0.00 91 1016.1
20260506100041 35 0 1.0 2.0 0.00 0.04 0.00 91 1016.1
20260506095526 36 0 0.0 2.0 0.00 0.04 0.00 92 1016.1
20260506095026 36 0 0.0 3.0 0.00 0.04 0.00 92 1016.1
20260506094544 36 0 0.0 3.0 0.00 0.04 0.00 92 1016.0
20260506094023 35 0 0.0 2.0 0.00 0.04 0.00 92 1016.1
20260506093525 35 0 0.0 2.0 0.00 0.04 0.00 92 1016.0
20260506093101 35 0 0.0 2.0 0.00 0.04 0.00 92 1016.1
20260506092525 35 0 1.0 2.0 0.00 0.04 0.00 92 1016.0
20260506092025 35 0 0.0 2.0 0.00 0.04 0.00 92 1016.0
20260506091536 35 281 0.0 2.0 0.00 0.04 0.00 92 1016.0
20260506091024 35 281 0.0 2.0 0.00 0.04 0.00 92 1015.9
20260506090526 35 0 0.0 2.0 0.00 0.04 0.00 92 1016.0
20260506090042 35 281 1.0 2.0 0.00 0.04 0.00 91 1015.9
20260506085525 35 281 0.0 2.0 0.00 0.04 0.00 91 1015.9
20260506085024 36 0 0.0 2.0 0.00 0.04 0.00 91 1015.9
20260506084536 36 0 0.0 2.0 0.00 0.04 0.00 91 1016.0
20260506084026 36 0 0.0 2.0 0.00 0.04 0.00 91 1015.9
20260506083526 36 281 0.0 3.0 0.00 0.04 0.00 91 1015.9
20260506083041 36 0 0.0 3.0 0.00 0.04 0.00 91 1015.9
20260506082529 36 281 0.0 3.0 0.00 0.04 0.00 91 1015.9
20260506082025 36 0 0.0 3.0 0.00 0.04 0.00 91 1015.9
20260506081540 37 0 1.0 3.0 0.00 0.04 0.00 92 1016.0
20260506081026 37 281 0.0 2.0 0.00 0.04 0.00 91 1016.1
20260506080524 37 281 0.0 3.0 0.00 0.04 0.00 92 1016.1
20260506073526 37 0 0.0 0.0 0.00 0.04 0.00 91 1016.6
20260506073042 37 0 0.0 1.0 0.00 0.04 0.00 91 1016.6
20260506072526 37 0 0.0 2.0 0.00 0.04 0.00 91 1016.5
20260506072027 38 279 0.0 2.0 0.00 0.04 0.00 90 1016.7
20260506071542 38 279 0.0 2.0 0.00 0.04 0.00 90 1016.6
20260506071021 38 0 0.0 2.0 0.00 0.04 0.00 90 1016.4
20260506070528 38 0 0.0 3.0 0.00 0.04 0.00 90 1016.4
20260506062026 40 0 0.0 2.0 0.00 0.04 0.00 89 1016.5
20260506061549 40 277 0.0 3.0 0.00 0.04 0.00 89 1016.4
20260506061027 40 0 0.0 4.0 0.00 0.04 0.00 88 1016.3
20260506060525 40 277 1.0 4.0 0.00 0.04 0.00 88 1016.4
20260506051025 41 0 1.0 6.0 0.04 0.04 0.04 88 1016.8
20260506050526 41 207 3.0 13.0 0.04 0.04 0.04 87 1017.0
20260506045026 41 184 5.0 12.0 0.04 0.04 0.04 88 1017.2
20260506044536 41 0 0.0 3.0 0.03 0.03 0.03 89 1017.0
20260506044022 41 0 0.0 5.0 0.03 0.03 0.03 89 1016.7
20260506043524 41 295 0.0 7.0 0.01 0.01 0.01 89 1016.4
20260506043043 41 296 3.0 7.0 0.01 0.01 0.01 88 1016.2
20260506042523 41 284 3.0 8.0 0.01 0.01 0.01 89 1016.1
20260506042025 41 288 3.0 8.0 0.00 0.00 0.00 89 1016.0
20260506041544 41 300 3.0 8.0 0.00 0.00 0.00 89 1015.8
20260506041025 41 294 3.0 10.0 0.00 0.00 0.00 89 1015.7
20260506040526 41 295 2.0 10.0 0.00 0.00 0.00 89 1015.7
20260506011540 54 125 4.0 10.0 0.00 0.00 0.00 48 1012.6
20260506011024 54 80 2.0 13.0 0.00 0.00 0.00 48 1012.3
20260506010524 54 90 5.0 13.0 0.00 0.00 0.00 48 1012.6
20260506010040 54 105 6.0 13.0 0.00 0.00 0.00 47 1012.7
20260506005524 55 117 7.0 13.0 0.00 0.00 0.00 47 1012.7
20260506005022 56 90 6.0 18.0 0.00 0.00 0.00 44 1012.7
20260506004541 57 101 11.0 18.0 0.00 0.00 0.00 42 1012.7
20260506004029 58 132 6.0 14.0 0.00 0.00 0.00 43 1012.6
20260506003530 58 109 9.0 15.0 0.00 0.00 0.00 42 1012.7
20260506003035 59 121 6.0 17.0 0.00 0.00 0.00 42 1012.7
20260506002524 59 124 7.0 17.0 0.00 0.00 0.00 42 1012.5
20260506002023 59 108 6.0 15.0 0.00 0.00 0.00 42 1012.6
20260506001548 58 105 5.0 14.0 0.00 0.00 0.00 42 1012.5
20260506001025 58 98 9.0 16.0 0.00 0.00 0.00 42 1012.6
20260506000527 58 107 9.0 21.0 0.00 0.00 0.00 42 1012.7
20260506000054 59 114 10.0 22.0 0.00 0.00 0.00 43 1012.7
20260505235524 59 89 9.0 22.0 0.00 0.00 0.00 43 1012.7
20260505235027 59 78 11.0 20.0 0.00 0.00 0.00 43 1012.5
20260505234542 59 112 10.0 20.0 0.00 0.00 0.00 43 1012.5
20260505234026 59 106 8.0 19.0 0.00 0.00 0.00 44 1012.4
20260505233525 58 103 11.0 25.0 0.00 0.00 0.00 45 1012.4
20260505233044 57 99 8.0 25.0 0.00 0.00 0.00 45 1012.5
20260505232527 57 86 10.0 22.0 0.00 0.00 0.00 46 1012.7